CW4086 Weather Reports


Display with metric or nautical units.
time (UTC)temp
F
wind
direction
speed
MPH
gust
MPH
rain 1hr
in
rain 24hr
in
rain mn
in
humidity
%
barometer
mb
20260506091104 50 184 0.0 0.0 0.00 0.15 0.00 81 1018.3
20260506090604 50 184 0.0 0.0 0.00 0.15 0.00 81 1018.3
20260506090104 50 184 0.0 0.0 0.00 0.15 0.00 81 1018.3
20260506085104 51 184 0.0 1.0 0.00 0.16 0.00 80 1018.3
20260506084604 51 184 0.0 1.0 0.00 0.17 0.00 80 1018.4
20260506084104 51 184 0.0 1.0 0.00 0.17 0.00 79 1018.4
20260506083604 51 184 0.0 0.0 0.00 0.17 0.00 79 1018.5
20260506082604 51 184 0.0 0.0 0.00 0.17 0.00 79 1018.7
20260506082106 52 184 0.0 0.0 0.00 0.17 0.00 78 1018.7
20260506081606 52 184 0.0 1.0 0.00 0.17 0.00 78 1018.7
20260506081107 52 184 0.0 1.0 0.00 0.17 0.00 78 1018.7
20260506080604 52 184 0.0 1.0 0.00 0.17 0.00 78 1018.7
20260506073104 52 184 0.0 1.0 0.00 0.18 0.00 78 1018.9
20260506072604 52 184 0.0 2.0 0.00 0.21 0.00 77 1018.9
20260506072105 52 184 0.0 2.0 0.00 0.23 0.00 77 1018.8
20260506071604 52 190 0.0 2.0 0.00 0.23 0.00 76 1018.9
20260506071104 52 191 0.0 1.0 0.00 0.23 0.00 76 1018.9
20260506070604 52 191 0.0 1.0 0.00 0.23 0.00 76 1018.9
20260506070104 52 191 0.0 2.0 0.00 0.23 0.00 75 1018.8
20260506062105 52 164 0.0 2.0 0.00 0.23 0.23 72 1018.5
20260506061604 52 176 1.0 2.0 0.00 0.23 0.23 72 1018.4
20260506061105 52 204 0.0 2.0 0.00 0.23 0.23 72 1018.5
20260506060603 52 162 1.0 3.0 0.00 0.23 0.23 72 1018.4
20260506060104 52 191 0.0 3.0 0.00 0.23 0.23 72 1018.4
20260506051104 53 163 1.0 2.0 0.00 0.23 0.23 74 1017.9
20260506050604 53 152 0.0 2.0 0.00 0.23 0.23 73 1017.8
20260506050105 53 168 0.0 2.0 0.00 0.23 0.23 73 1017.7
20260506044604 54 171 0.0 1.0 0.00 0.23 0.23 71 1017.6
20260506044104 54 178 0.0 1.0 0.00 0.23 0.23 71 1017.6
20260506043604 54 177 0.0 1.0 0.00 0.23 0.23 70 1017.6
20260506043103 54 172 0.0 1.0 0.00 0.23 0.23 69 1017.6
20260506042603 54 182 0.0 1.0 0.00 0.23 0.23 69 1017.5
20260506042106 54 182 0.0 1.0 0.00 0.23 0.23 69 1017.4
20260506041604 54 173 0.0 2.0 0.00 0.23 0.23 68 1017.2
20260506041106 54 173 0.0 2.0 0.00 0.23 0.23 69 1017.1
20260506040604 55 167 0.0 1.0 0.00 0.23 0.23 68 1017.1
20260506040104 55 168 0.0 0.0 0.00 0.23 0.23 67 1017.1
20260506035604 55 168 0.0 1.0 0.00 0.23 0.23 67 1017.1
20260506034603 55 167 0.0 1.0 0.00 0.23 0.23 67 1016.9
20260506034104 55 167 0.0 1.0 0.00 0.23 0.23 66 1016.8
20260506033604 55 167 0.0 1.0 0.00 0.23 0.23 66 1016.8
20260506033104 55 167 0.0 1.0 0.00 0.23 0.23 66 1016.7
20260506032604 55 167 0.0 2.0 0.00 0.23 0.23 66 1016.6
20260506031604 55 168 0.0 1.0 0.00 0.23 0.23 65 1016.5
20260506031106 55 168 0.0 1.0 0.00 0.23 0.23 65 1016.5
20260506030104 55 168 0.0 1.0 0.00 0.23 0.23 65 1016.5
20260506025603 55 170 0.0 2.0 0.00 0.23 0.23 65 1016.4
20260506025104 55 170 0.0 2.0 0.00 0.23 0.23 66 1016.2
20260506024605 55 161 1.0 2.0 0.00 0.23 0.23 66 1016.0
20260506024104 55 238 1.0 2.0 0.00 0.23 0.23 66 1016.0
20260506023604 55 261 0.0 2.0 0.00 0.23 0.23 67 1016.0
20260506023104 55 259 1.0 3.0 0.00 0.23 0.23 67 1016.0
20260506022604 55 247 1.0 3.0 0.00 0.23 0.23 66 1015.9
20260506022104 55 329 1.0 3.0 0.00 0.23 0.23 66 1015.9
20260506021106 55 250 1.0 3.0 0.00 0.23 0.23 66 1015.7
20260506020605 55 274 1.0 3.0 0.00 0.23 0.23 66 1015.5
20260506020104 56 261 1.0 3.0 0.00 0.23 0.23 66 1015.4
20260506015604 56 261 1.0 6.0 0.00 0.23 0.23 65 1015.4
20260506014104 56 300 2.0 7.0 0.00 0.23 0.23 64 1015.2
20260506013604 56 273 2.0 7.0 0.00 0.23 0.23 64 1015.0
20260506013105 56 266 2.0 5.0 0.00 0.23 0.23 64 1014.9
20260506012605 57 303 2.0 5.0 0.00 0.23 0.23 63 1014.9
20260506012104 57 331 2.0 5.0 0.00 0.23 0.23 62 1014.8
20260506011605 57 266 1.0 3.0 0.00 0.23 0.23 62 1014.8
20260506011106 57 280 2.0 3.0 0.00 0.23 0.23 61 1014.8
20260506010603 57 285 2.0 5.0 0.00 0.23 0.23 60 1014.8
20260506010104 58 286 2.0 5.0 0.00 0.23 0.23 60 1014.8
20260506005604 58 274 2.0 7.0 0.00 0.23 0.23 59 1014.8
20260506005103 58 284 3.0 7.0 0.00 0.23 0.23 58 1014.7
20260506004604 58 316 3.0 10.0 0.00 0.23 0.23 57 1014.7
20260506004103 59 271 3.0 10.0 0.00 0.23 0.23 56 1014.7
20260506003604 59 282 6.0 10.0 0.00 0.23 0.23 54 1014.5
20260506003103 60 300 5.0 12.0 0.00 0.23 0.23 54 1014.6
20260506002604 60 276 6.0 12.0 0.00 0.23 0.23 54 1014.6
20260506002103 61 262 3.0 8.0 0.00 0.23 0.23 53 1014.6
20260506001605 61 275 5.0 9.0 0.00 0.23 0.23 54 1014.6
20260506000104 61 272 5.0 12.0 0.00 0.23 0.23 52 1014.5
20260505235604 61 268 7.0 12.0 0.00 0.23 0.23 54 1014.5
20260505235104 62 257 5.0 7.0 0.00 0.23 0.23 51 1014.5
20260505234603 62 237 4.0 9.0 0.00 0.23 0.23 52 1014.4
20260505234103 61 231 2.0 9.0 0.00 0.23 0.23 52 1014.4
20260505233604 61 245 5.0 10.0 0.00 0.23 0.23 54 1014.4
20260505233105 62 270 5.0 10.0 0.00 0.23 0.23 52 1014.5
20260505232603 62 250 5.0 10.0 0.00 0.23 0.23 51 1014.4
20260505232105 62 272 5.0 10.0 0.00 0.23 0.23 54 1014.4
20260505231604 62 220 3.0 12.0 0.00 0.23 0.23 53 1014.5
20260505231107 62 266 6.0 12.0 0.00 0.23 0.23 54 1014.6
20260505230604 62 273 6.0 12.0 0.00 0.23 0.23 54 1014.6
20260505230105 61 252 2.0 7.0 0.00 0.23 0.23 57 1014.6
20260505225604 60 247 4.0 6.0 0.00 0.23 0.23 56 1014.8
20260505225104 60 270 4.0 7.0 0.00 0.23 0.23 56 1014.8
20260505224604 59 336 3.0 8.0 0.00 0.23 0.23 56 1014.8
20260505224104 59 290 3.0 8.0 0.00 0.23 0.23 58 1014.8
20260505223604 59 336 3.0 7.0 0.00 0.23 0.23 59 1014.9
20260505223105 59 291 2.0 10.0 0.00 0.23 0.23 61 1014.9
20260505222604 58 287 3.0 10.0 0.00 0.23 0.23 60 1014.9
20260505222104 58 262 5.0 8.0 0.00 0.23 0.23 60 1014.9
20260505221604 58 261 3.0 7.0 0.00 0.23 0.23 60 1015.0
20260505221106 58 288 2.0 7.0 0.00 0.23 0.23 62 1015.1
20260505220603 58 287 5.0 7.0 0.00 0.23 0.23 62 1015.2
20260505220105 58 290 3.0 6.0 0.00 0.23 0.23 62 1015.3
20260505215604 58 303 3.0 6.0 0.00 0.23 0.23 63 1015.3
20260505215104 58 289 3.0 5.0 0.00 0.23 0.23 61 1015.3
20260505214604 58 290 1.0 5.0 0.00 0.23 0.23 62 1015.3
20260505214104 58 283 2.0 5.0 0.00 0.23 0.23 62 1015.3
20260505213604 58 270 1.0 3.0 0.00 0.23 0.23 62 1015.3
20260505213104 58 270 1.0 3.0 0.00 0.23 0.23 62 1015.4
20260505212603 58 270 0.0 3.0 0.00 0.23 0.23 62 1015.4
20260505212104 58 298 1.0 3.0 0.00 0.23 0.23 63 1015.4
20260505211604 57 298 0.0 5.0 0.00 0.23 0.23 63 1015.4
20260505211106 57 298 2.0 5.0 0.00 0.23 0.23 64 1015.4
20260505210604 57 314 3.0 5.0 0.00 0.23 0.23 64 1015.4
20260505210104 57 307 2.0 5.0 0.00 0.23 0.23 64 1015.4
20260505205604 57 295 2.0 3.0 0.00 0.23 0.23 63 1015.4
20260505204604 57 295 1.0 3.0 0.00 0.23 0.23 65 1015.4
20260505204105 57 298 1.0 8.0 0.00 0.23 0.23 66 1015.4
20260505203604 57 298 2.0 8.0 0.00 0.23 0.23 66 1015.4
20260505203104 57 321 5.0 8.0 0.00 0.23 0.23 66 1015.4
20260505202604 57 303 2.0 5.0 0.00 0.23 0.23 66 1015.4
20260505202104 57 303 2.0 6.0 0.00 0.23 0.23 67 1015.4
20260505201604 57 294 3.0 7.0 0.00 0.23 0.23 67 1015.4
20260505201106 57 242 3.0 12.0 0.00 0.23 0.23 66 1015.5
20260505200604 58 255 5.0 12.0 0.00 0.23 0.23 66 1015.5
20260505200105 58 226 3.0 6.0 0.00 0.23 0.23 68 1015.5
20260505195104 57 254 1.0 6.0 0.00 0.23 0.23 73 1015.5
20260505194604 57 280 3.0 6.0 0.00 0.23 0.23 72 1015.6
20260505194104 57 24 1.0 5.0 0.00 0.23 0.23 76 1015.8
20260505193604 56 39 1.0 3.0 0.00 0.23 0.23 78 1015.8
20260505193104 56 44 1.0 3.0 0.00 0.23 0.23 79 1015.8
20260505192604 56 144 0.0 5.0 0.00 0.23 0.23 82 1015.8
20260505192105 56 153 2.0 5.0 0.00 0.23 0.23 83 1015.8
20260505191603 56 63 1.0 2.0 0.00 0.23 0.23 87 1015.9
20260505191107 55 63 1.0 3.0 0.00 0.23 0.23 89 1015.9
20260505190604 55 63 0.0 3.0 0.00 0.23 0.23 90 1015.9
20260505190104 55 63 2.0 3.0 0.00 0.23 0.23 91 1015.8
20260505185604 55 65 1.0 3.0 0.00 0.23 0.23 92 1015.9
20260505185104 56 129 0.0 3.0 0.00 0.23 0.23 94 1015.8
20260505184604 55 74 1.0 5.0 0.00 0.23 0.23 93 1015.8
20260505184104 55 66 1.0 5.0 0.00 0.23 0.23 95 1015.8
20260505183604 54 79 1.0 3.0 0.00 0.23 0.23 95 1015.8
20260505183104 54 78 0.0 3.0 0.00 0.23 0.23 95 1015.9
20260505182105 54 83 0.0 5.0 0.00 0.23 0.23 95 1015.9
20260505181605 54 164 0.0 3.0 0.00 0.23 0.23 96 1016.0
20260505180604 54 205 0.0 3.0 0.00 0.23 0.23 96 1016.1
20260505175103 53 205 0.0 2.0 0.00 0.23 0.23 96 1015.9
20260505174604 53 226 0.0 2.0 0.00 0.23 0.23 96 1015.8
20260505173104 52 226 0.0 2.0 0.00 0.23 0.23 100 1015.8
20260505172603 52 226 0.0 2.0 0.00 0.23 0.23 100 1015.8
20260505171604 51 226 0.0 1.0 0.00 0.23 0.23 100 1015.6
20260505171107 51 226 0.0 2.0 0.00 0.23 0.23 100 1015.4
20260505170603 51 227 1.0 2.0 0.01 0.23 0.23 98 1015.4
20260505170104 51 226 0.0 3.0 0.01 0.23 0.23 100 1015.3
20260505165603 51 226 0.0 3.0 0.01 0.23 0.23 100 1015.2
20260505165105 51 227 2.0 3.0 0.01 0.23 0.23 100 1015.2
20260505164604 51 259 0.0 2.0 0.01 0.23 0.23 100 1015.1
20260505164104 51 259 0.0 2.0 0.01 0.23 0.23 100 1015.1
20260505163604 51 259 1.0 5.0 0.01 0.23 0.23 100 1015.1
20260505163104 51 255 2.0 5.0 0.01 0.23 0.23 100 1015.1
20260505162604 51 290 1.0 3.0 0.01 0.23 0.23 100 1015.1
20260505162104 51 313 1.0 5.0 0.01 0.23 0.23 100 1014.9
20260505161604 51 315 1.0 5.0 0.01 0.23 0.23 100 1014.7
20260505161107 51 306 1.0 3.0 0.01 0.23 0.23 100 1014.6
20260505160104 51 294 1.0 5.0 0.00 0.22 0.22 100 1014.6
20260505153104 51 274 2.0 3.0 0.02 0.22 0.22 100 1014.4
20260505152605 51 288 1.0 2.0 0.02 0.22 0.22 100 1014.3
20260505152104 51 288 1.0 2.0 0.03 0.22 0.22 96 1014.3
20260505151604 51 288 0.0 2.0 0.03 0.22 0.22 99 1014.2
20260505151107 52 288 1.0 2.0 0.05 0.22 0.22 100 1014.2
20260505150604 51 290 0.0 1.0 0.05 0.22 0.22 100 1014.1
20260505140604 50 229 1.0 2.0 0.06 0.17 0.17 95 1014.0
20260505140104 50 267 1.0 3.0 0.07 0.17 0.17 95 1014.0
20260505130105 50 153 0.0 1.0 0.01 0.10 0.10 94 1013.5
20260505124104 50 173 0.0 1.0 0.02 0.10 0.10 94 1013.5
20260505123604 50 173 0.0 1.0 0.02 0.10 0.10 94 1013.5
20260505123104 50 175 0.0 1.0 0.02 0.10 0.10 94 1013.5
20260505122604 50 175 0.0 1.0 0.02 0.10 0.10 93 1013.5
20260505122104 50 175 0.0 1.0 0.02 0.10 0.10 93 1013.5
20260505121604 50 175 0.0 0.0 0.02 0.10 0.10 93 1013.5
20260505121106 50 175 0.0 0.0 0.02 0.10 0.10 93 1013.5
20260505120604 50 175 0.0 0.0 0.01 0.09 0.09 93 1013.5
20260505120104 50 175 0.0 0.0 0.01 0.09 0.09 93 1013.5
20260505115604 50 175 0.0 0.0 0.01 0.09 0.09 93 1013.6
20260505115104 50 175 0.0 1.0 0.01 0.09 0.09 93 1013.6
20260505114603 50 175 0.0 1.0 0.01 0.09 0.09 93 1013.7
20260505114104 50 175 0.0 0.0 0.00 0.08 0.08 93 1013.6
20260505113604 50 175 0.0 0.0 0.00 0.08 0.08 93 1013.6
20260505113104 50 175 0.0 0.0 0.00 0.08 0.08 93 1013.6
20260505111604 49 175 0.0 0.0 0.00 0.08 0.08 93 1013.6
20260505111107 49 175 0.0 1.0 0.00 0.08 0.08 92 1013.6
20260505110604 49 175 0.0 1.0 0.00 0.08 0.08 92 1013.5
20260505110104 49 175 0.0 1.0 0.00 0.08 0.08 92 1013.5
20260505102104 49 175 0.0 1.0 0.00 0.08 0.08 92 1013.7
20260505101605 49 175 0.0 1.0 0.00 0.08 0.08 92 1013.8
20260505101106 49 175 0.0 0.0 0.00 0.08 0.08 92 1013.8
20260505100604 49 175 0.0 0.0 0.00 0.08 0.08 92 1013.9
20260505100105 49 175 0.0 0.0 0.00 0.08 0.08 91 1013.9
20260505095604 49 175 0.0 0.0 0.01 0.08 0.08 91 1014.0
20260505095104 49 175 0.0 1.0 0.01 0.08 0.08 91 1014.0
20260505094104 49 175 0.0 1.0 0.02 0.08 0.08 91 1014.1
20260505093605 49 175 0.0 1.0 0.02 0.08 0.08 91 1014.1
20260505093103 50 175 0.0 1.0 0.02 0.08 0.08 91 1014.1
20260505092604 50 175 0.0 1.0 0.02 0.08 0.08 91 1014.1
20260505092104 50 175 0.0 1.0 0.02 0.08 0.08 90 1014.3
20260505091604 50 175 0.0 1.0 0.02 0.08 0.08 90 1014.4